This demonstration page uses our WeatherBlox Daily Observations layout. Learn more.

Left ArrowRight Arrow

Hourly Observations for May 20, 2018

Temp ( °F °C ) Dew Point ( °F °C ) Humidity (%) Winds ( mph kmh ) Pressure ( in mb ) Visibility ( mi km ) Precip ( " mm )
12:53 am 00:53 Mostly Clear 66 18.9 65 18.3 96 96 Calm 29.99 1016 7 11 0.00 0.00
1:53 am 01:53 Clear with Mist and Fog 65 18.3 64 17.8 97 97 Calm 29.99 1016 3 4 0.00 0.00
2:07 am 02:07 Clear with Mist and Fog 65 18.3 64 17.8 97 97 Calm 30.00 1016 4 6 0.00 0.00
2:53 am 02:53 Hazy 63 17.2 55 12.8 76 76 Calm 30.00 1016 4 6 0.00 0.00
3:02 am 03:02 Hazy 64 17.8 32 0 30 30 Calm 30.00 1016 3 4 0.00 0.00
3:16 am 03:16 Hazy 64 17.8 31 -0.6 29 29 Calm 30.00 1016 4 6 0.00 0.00
3:48 am 03:48 Hazy 63 17 28 -2 27 27 Calm 30.03 1017 2 3 0.00 0.00
3:49 am 03:49 Hazy 63 17.2 29 -1.7 28 28 Calm 30.01 1016 2 3 0.00 0.00
3:56 am 03:56 Hazy 63 17.2 28 -2.2 27 27 Calm 30.03 1017 1 2 0.00 0.00
4:04 am 04:04 Hazy 64 17.8 29 -1.7 27 27 Calm 30.03 1017 1 1 0.00 0.00
4:12 am 04:12 Hazy 64 17.8 29 -1.7 27 27 Calm 30.03 1017 0 0 0.00 0.00
4:25 am 04:25 Mostly Cloudy with Haze 63 17.2 28 -2.2 27 27 Calm 30.03 1017 1 2 0.00 0.00
4:34 am 04:34 Mostly Cloudy with Haze 63 17.2 28 -2.2 27 27 Calm 30.03 1017 0 0 0.00 0.00
4:53 am 04:53 Mostly Cloudy with Haze 63 17.2 27 -2.8 26 26 Calm 30.02 1017 0 0 0.00 0.00
5:09 am 05:09 Hazy 64 17.8 28 -2.2 26 26 Calm 30.03 1017 1 2 0.00 0.00
5:17 am 05:17 Hazy 64 17.8 28 -2.2 26 26 Calm 30.03 1017 2 3 0.00 0.00
5:36 am 05:36 Mostly Cloudy with Haze 61 16.1 28 -2.2 29 29 Calm 30.03 1017 1 2 0.00 0.00
5:48 am 05:48 Mostly Cloudy with Haze 63 17 28 -2 27 27 Calm 30.03 1017 0 0 0.00 0.00
5:53 am 05:53 Mostly Cloudy with Haze 62 16.7 28 -2.2 28 28 Calm 30.03 1017 0 0 0.00 0.00
6:03 am 06:03 Hazy 62 16.7 28 -2.2 28 28 Calm 30.03 1017 1 2 0.00 0.00
6:11 am 06:11 Hazy 64 17.8 28 -2.2 26 26 Calm 30.03 1017 2 3 0.00 0.00
6:22 am 06:22 Hazy 64 17.8 28 -2.2 26 26 Calm 30.03 1017 3 4 0.00 0.00
6:35 am 06:35 Hazy 63 17.2 28 -2.2 27 27 Calm 30.06 1018 2 2 0.00 0.00
6:53 am 06:53 Sunny with Light Rain 62 16.7 28 -2.2 28 28 Calm 30.05 1018 1 2 0.00 0.03
6:59 am 06:59 Sunny with Light Rain 63 17.2 28 -2.2 27 27 Calm 30.06 1018 2 3 0.00 0.03
7:25 am 07:25 Hazy 65 18.3 28 -2.2 25 25 Calm 30.06 1018 3 5 0.00 0.03
7:38 am 07:38 Hazy 66 18.9 28 -2.2 24 24 Calm 30.06 1018 3 4 0.00 0.03
7:50 am 07:50 Hazy 66 19 28 -2 24 24 Calm 30.06 1018 3 5 0.00 0.03
7:53 am 07:53 Hazy 67 19.4 28 -2.2 23 23 Calm 30.07 1018 3 5 0.00 0.03
8:20 am 08:20 Mostly Cloudy with Haze 68 20 28 -2.2 22 22 Calm 30.06 1018 4 6 0.00 0.00
8:53 am 08:53 Cloudy 70 21.1 29 -1.7 22 22 Calm 30.07 1018 7 11 0.00 0.00
9:33 am 09:33 Cloudy with Haze 70 21.1 29 -1.7 22 22 NNE 5 7 30.06 1018 3 4 0.00 0.00
9:43 am 09:43 Cloudy with Haze 70 21.1 29 -1.7 22 22 NNE 5 7 30.06 1018 5 8 0.00 0.00
9:53 am 09:53 Cloudy with Haze 70 21.1 29 -1.7 22 22 NE 6 9 30.09 1019 4 6 0.00 0.00
10:45 am 10:45 Cloudy with Haze 71 21.7 29 -1.7 21 21 Calm 30.09 1019 5 8 0.00 0.00
10:53 am 10:53 Cloudy with Haze 71 21.7 29 -1.7 21 21 Calm 30.10 1019 5 8 0.00 0.00
11:53 am 11:53 Mostly Cloudy with Haze 75 23.9 30 -1.1 19 19 WNW 8 13 30.12 1020 6 10 0.00 0.00
12:08 pm 12:08 Mostly Cloudy 77 25 30 -1.1 18 18 VRB 6 9 30.09 1019 7 11 0.00 0.00
12:20 pm 12:20 Partly Cloudy 76 24.4 30 -1.1 18 18 W 5 7 30.09 1019 7 11 0.00 0.00
12:53 pm 12:53 Sunny 78 25.6 29 -1.7 16 16 VRB 5 7 30.12 1020 9 14 0.00 0.00
1:53 pm 13:53 Mostly Sunny 81 27.2 30 -1.1 16 16 WSW 7 11 30.10 1019 10 16 0.00 0.00
2:53 pm 14:53 Mostly Sunny 81 27.2 30 -1.1 16 16 VRB 5 7 30.09 1019 10 16 0.00 0.00
3:53 pm 15:53 Sunny 83 28.3 30 -1.1 15 15 VRB 3 6 30.07 1018 10 16 0.00 0.00
4:53 pm 16:53 Sunny with Light Rain 84 28.9 31 -0.6 15 15 Calm 30.05 1018 10 16 0.00 0.03
5:53 pm 17:53 Sunny 85 29.4 31 -0.6 14 14 NNW 6 9 30.04 1017 10 16 0.00 0.03
6:30 pm 18:30 Partly Cloudy with Nearby Thunderstorms 82 27.8 30 -1.1 15 15 N 9 15 30.03 1017 10 16 0.00 0.00
6:49 pm 18:49 Mostly Cloudy with Thunderstorms 77 25 28 -2 17 17 NNE 13 20 30.06 1018 10 16 0.00 0.00
6:53 pm 18:53 Cloudy with Thunderstorms 76 24.4 28 -2.2 17 17 NNE 12 19 30.08 1019 5 8 0.04 1.02
6:58 pm 18:58 Cloudy with Strong Thunderstorms 74 23.3 28 -2.2 18 18 NNE 13 20 30.06 1018 2 3 0.12 3.05
7:01 pm 19:01 Mostly Cloudy with Strong Thunderstorms 72 22.2 28 -2.2 19 19 NNE 13 20 30.06 1018 1 1 0.28 7.11
7:12 pm 19:12 Mostly Cloudy with Heavy Rain 71 21.7 28 -2.2 20 20 ENE 12 19 30.06 1018 1 1 0.64 16.26
7:16 pm 19:16 Cloudy with Nearby Thunderstorms 71 21.7 28 -2.2 20 20 ENE 10 17 30.06 1018 2 3 0.64 16.26
7:23 pm 19:23 Mostly Cloudy with Nearby Thunderstorms 71 21.7 28 -2.2 20 20 NE 9 15 30.06 1018 10 16 0.64 16.26
7:30 pm 19:30 Partly Cloudy with Nearby Thunderstorms 72 22.2 28 -2.2 19 19 NNE 3 6 30.06 1018 10 16 0.64 16.26
7:53 pm 19:53 Sunny 72 22.2 28 -2.2 19 19 ENE 3 6 30.07 1018 10 16 0.64 16.26
8:53 pm 20:53 Hazy 70 21.1 27 -2.8 20 20 Calm 30.08 1019 4 6 0.00 0.00
9:53 pm 21:53 Clear 69 20.6 27 -2.8 21 21 Calm 30.09 1019 7 11 0.00 0.00
10:53 pm 22:53 Hazy 68 20 26 -3.3 21 21 Calm 30.11 1020 4 6 0.00 0.00
11:53 pm 23:53 Hazy 68 20 27 -2.8 21 21 Calm 30.10 1019 6 10 0.00 0.00

Powered by AerisWeather